Terminal Aerodrome Forecast
Issued by NWS Mt. Holly, NJ

Current Version | Previous Version | Text Only | Print | Product List | Glossary On
Versions: 1 2 3 4 5 6 7 8 9 10 11 12 13 14 15 16 17 18 19 20 21 22 23 24 25 26
995
FTUS41 KPHI 292007 AAA
TAFPHL
TAF AMD
KPHL 292007Z 2920/3024 08022G34KT P6SM -RA OVC015
      TEMPO 2920/2924 4SM RADZ BR OVC009
     FM300000 07015G29KT 4SM -RADZ OVC009
      TEMPO 3007/3011 2SM +RA BR OVC005
     FM301500 05014G24KT 5SM -RADZ BR OVC009
     FM302100 05014KT 6SM -DZ BR OVC010=

USA.gov is the U.S. government's official web portal to all federal, state and local government web resources and services.